| time (UTC) | temp C | wind direction | speed KPH | gust KPH | rain 1hr cm | rain 24hr cm | rain mn cm | humidity % | barometer mb |
| 20260505223017 | 8 | 360 | 8.0 | 14.5 | 0.00 | 0.00 | 0.00 | 39 | 1018.7 |
| 20260505221518 | 7 | 338 | 8.0 | 25.7 | 0.00 | 0.00 | 0.00 | 42 | 1018.7 |
| 20260505220019 | 7 | 273 | 11.3 | 25.7 | 0.00 | 0.00 | 0.00 | 46 | 1018.7 |
| 20260505214517 | 7 | 347 | 20.9 | 41.8 | 0.00 | 0.00 | 0.00 | 49 | 1018.8 |
| 20260505213023 | 7 | 10 | 12.9 | 32.2 | 0.00 | 0.00 | 0.00 | 60 | 1018.9 |
| 20260505211520 | 7 | 325 | 16.1 | 25.7 | 0.00 | 0.00 | 0.00 | 45 | 1018.9 |
| 20260505210018 | 7 | 360 | 6.4 | 12.9 | 0.00 | 0.00 | 0.00 | 47 | 1019.0 |
| 20260505204515 | 6 | 5 | 3.2 | 20.9 | 0.00 | 0.00 | 0.00 | 51 | 1019.3 |
| 20260505203026 | 7 | 345 | 19.3 | 30.6 | 0.00 | 0.00 | 0.00 | 47 | 1019.2 |
| 20260505201514 | 7 | 319 | 11.3 | 22.5 | 0.00 | 0.00 | 0.00 | 47 | 1019.2 |
| 20260505200012 | 7 | 348 | 17.7 | 29.0 | 0.00 | 0.00 | 0.00 | 52 | 1019.4 |
| 20260505194511 | 7 | 360 | 12.9 | 22.5 | 0.00 | 0.00 | 0.00 | 54 | 1019.3 |
| 20260505193010 | 6 | 5 | 12.9 | 20.9 | 0.00 | 0.00 | 0.00 | 55 | 1019.5 |
| 20260505191510 | 6 | 345 | 11.3 | 22.5 | 0.00 | 0.00 | 0.00 | 60 | 1019.6 |
| 20260505190009 | 5 | 350 | 14.5 | 24.1 | 0.00 | 0.00 | 0.00 | 62 | 1019.5 |
| 20260505184509 | 5 | 327 | 11.3 | 20.9 | 0.00 | 0.00 | 0.00 | 65 | 1019.5 |
| 20260505183008 | 4 | 284 | 9.7 | 17.7 | 0.00 | 0.00 | 0.00 | 70 | 1019.6 |
| 20260505181509 | 4 | 316 | 9.7 | 19.3 | 0.00 | 0.00 | 0.00 | 63 | 1019.6 |
| 20260505180008 | 5 | 347 | 16.1 | 27.4 | 0.00 | 0.00 | 0.00 | 63 | 1019.5 |
| 20260505174508 | 5 | 333 | 14.5 | 25.7 | 0.00 | 0.00 | 0.00 | 67 | 1019.4 |
| 20260505173008 | 5 | 313 | 9.7 | 16.1 | 0.00 | 0.00 | 0.00 | 68 | 1019.3 |
| 20260505171506 | 4 | 348 | 11.3 | 19.3 | 0.00 | 0.00 | 0.00 | 73 | 1019.3 |
| 20260505170009 | 3 | 325 | 9.7 | 20.9 | 0.00 | 0.00 | 0.00 | 76 | 1019.3 |
| 20260505164502 | 4 | 347 | 16.1 | 25.7 | 0.00 | 0.00 | 0.00 | 68 | 1019.3 |
| 20260505163005 | 4 | 5 | 8.0 | 17.7 | 0.00 | 0.00 | 0.00 | 65 | 1019.1 |
| 20260505161502 | 3 | 347 | 11.3 | 16.1 | 0.00 | 0.00 | 0.00 | 68 | 1019.2 |
| 20260505153100 | 2 | 59 | 1.6 | 8.0 | 0.00 | 0.00 | 0.00 | 76 | 1019.3 |
| 20260505151614 | 3 | 63 | 0.0 | 11.3 | 0.00 | 0.00 | 0.00 | 76 | 1019.5 |
| 20260505124549 | 0 | 104 | 1.6 | 9.7 | 0.00 | 0.00 | 0.00 | 60 | 1018.1 |
| 20260505123045 | 0 | 103 | 8.0 | 11.3 | 0.00 | 0.00 | 0.00 | 64 | 1017.9 |
| 20260505121545 | -1 | 102 | 8.0 | 11.3 | 0.00 | 0.00 | 0.00 | 66 | 1017.8 |
| 20260505120103 | -1 | 99 | 1.6 | 8.0 | 0.00 | 0.00 | 0.00 | 69 | 1017.7 |
| 20260505114540 | -1 | 99 | 0.0 | 0.0 | 0.00 | 0.00 | 0.00 | 68 | 1017.2 |
| 20260505113044 | -1 | 99 | 0.0 | 0.0 | 0.00 | 0.00 | 0.00 | 68 | 1017.1 |
| 20260505111535 | -1 | 99 | 0.0 | 0.0 | 0.00 | 0.00 | 0.00 | 68 | 1017.1 |
| 20260505101528 | -1 | 99 | 0.0 | 0.0 | 0.00 | 0.00 | 0.00 | 62 | 1016.7 |
| 20260505100028 | -1 | 99 | 0.0 | 3.2 | 0.00 | 0.00 | 0.00 | 61 | 1016.6 |
| 20260505094527 | -1 | 99 | 0.0 | 3.2 | 0.00 | 0.00 | 0.00 | 61 | 1016.5 |
| 20260505093028 | -1 | 99 | 0.0 | 1.6 | 0.00 | 0.00 | 0.00 | 62 | 1016.4 |
| 20260505091528 | -1 | 99 | 0.0 | 4.8 | 0.00 | 0.00 | 0.00 | 61 | 1016.5 |
| 20260505090037 | -1 | 99 | 0.0 | 0.0 | 0.00 | 0.00 | 0.00 | 61 | 1016.4 |
| 20260505084521 | -1 | 99 | 0.0 | 0.0 | 0.00 | 0.00 | 0.00 | 58 | 1016.3 |
| 20260505083018 | 0 | 99 | 0.0 | 0.0 | 0.00 | 0.00 | 0.00 | 55 | 1016.3 |
| 20260505081518 | 0 | 99 | 0.0 | 0.0 | 0.00 | 0.00 | 0.00 | 55 | 1016.2 |
| 20260505080016 | 0 | 99 | 0.0 | 8.0 | 0.00 | 0.00 | 0.00 | 55 | 1015.9 |
| 20260505074516 | 0 | 99 | 0.0 | 0.0 | 0.00 | 0.00 | 0.00 | 55 | 1016.0 |
| 20260505073027 | 0 | 99 | 0.0 | 3.2 | 0.00 | 0.00 | 0.00 | 53 | 1016.0 |
| 20260505071559 | 1 | 99 | 0.0 | 0.0 | 0.00 | 0.00 | 0.00 | 49 | 1015.9 |
| 20260505070052 | 1 | 99 | 3.2 | 11.3 | 0.00 | 0.00 | 0.00 | 48 | 1015.7 |
| 20260505064535 | 1 | 99 | 3.2 | 9.7 | 0.00 | 0.00 | 0.00 | 49 | 1015.7 |
| 20260505063016 | 2 | 90 | 3.2 | 8.0 | 0.00 | 0.00 | 0.00 | 44 | 1015.4 |
| 20260505061527 | 3 | 90 | 1.6 | 11.3 | 0.00 | 0.00 | 0.00 | 41 | 1015.3 |
| 20260505060008 | 4 | 82 | 8.0 | 12.9 | 0.00 | 0.00 | 0.00 | 38 | 1015.2 |
| 20260505054506 | 5 | 89 | 8.0 | 22.5 | 0.00 | 0.00 | 0.00 | 36 | 1015.0 |
| 20260505053002 | 6 | 57 | 14.5 | 22.5 | 0.00 | 0.00 | 0.00 | 34 | 1014.7 |
| 20260505051558 | 6 | 79 | 12.9 | 20.9 | 0.00 | 0.00 | 0.00 | 32 | 1014.5 |
| 20260505041555 | 7 | 321 | 1.6 | 8.0 | 0.00 | 0.00 | 0.00 | 40 | 1013.6 |
| 20260505040044 | 8 | 329 | 0.0 | 6.4 | 0.00 | 0.00 | 0.00 | 38 | 1013.5 |
| 20260505034542 | 8 | 332 | 3.2 | 6.4 | 0.00 | 0.00 | 0.00 | 36 | 1013.4 |
| 20260505033040 | 8 | 347 | 3.2 | 4.8 | 0.00 | 0.00 | 0.00 | 35 | 1013.3 |
| 20260505031637 | 9 | 350 | 0.0 | 1.6 | 0.00 | 0.00 | 0.00 | 33 | 1013.1 |
| 20260505030035 | 9 | 350 | 0.0 | 3.2 | 0.00 | 0.00 | 0.00 | 32 | 1012.9 |
| 20260505024539 | 10 | 350 | 0.0 | 4.8 | 0.00 | 0.00 | 0.00 | 32 | 1012.9 |
| 20260505023031 | 10 | 350 | 1.6 | 6.4 | 0.00 | 0.00 | 0.00 | 31 | 1012.7 |
| 20260505021530 | 10 | 350 | 3.2 | 11.3 | 0.00 | 0.00 | 0.00 | 29 | 1012.7 |
| 20260505020032 | 10 | 5 | 4.8 | 12.9 | 0.00 | 0.00 | 0.00 | 29 | 1012.5 |
| 20260505014534 | 11 | 350 | 8.0 | 11.3 | 0.00 | 0.00 | 0.00 | 30 | 1012.5 |
| 20260505013027 | 11 | 348 | 4.8 | 12.9 | 0.00 | 0.00 | 0.00 | 29 | 1012.5 |
| 20260505011533 | 11 | 5 | 6.4 | 19.3 | 0.00 | 0.00 | 0.00 | 28 | 1012.5 |
| 20260505010026 | 11 | 351 | 14.5 | 20.9 | 0.00 | 0.00 | 0.00 | 27 | 1012.5 |
| 20260505004542 | 11 | 59 | 12.9 | 25.7 | 0.00 | 0.00 | 0.00 | 28 | 1012.5 |
| 20260505003024 | 11 | 5 | 14.5 | 25.7 | 0.00 | 0.00 | 0.00 | 28 | 1012.5 |
| 20260505001523 | 11 | 360 | 16.1 | 25.7 | 0.00 | 0.00 | 0.00 | 26 | 1012.3 |
| 20260505000035 | 11 | 341 | 12.9 | 25.7 | 0.00 | 0.00 | 0.00 | 28 | 1012.2 |
| 20260504234519 | 11 | 348 | 12.9 | 27.4 | 0.00 | 0.00 | 0.00 | 28 | 1012.1 |
| 20260504233017 | 11 | 355 | 17.7 | 25.7 | 0.00 | 0.00 | 0.00 | 28 | 1012.1 |
| 20260504231515 | 12 | 350 | 11.3 | 25.7 | 0.00 | 0.00 | 0.00 | 27 | 1012.1 |
| 20260504230016 | 12 | 5 | 20.9 | 33.8 | 0.00 | 0.00 | 0.00 | 26 | 1011.9 |
| 20260504224518 | 12 | 350 | 20.9 | 33.8 | 0.00 | 0.00 | 0.00 | 26 | 1011.8 |